Regional Weather Roundup
Issued by NWS Sterling, VA

Home | Current Version | Previous Version | Graphics & Text | Print | Product List | Glossary On
Versions: 1 2 3 4 5 6 7 8 9 10 11 12 13 14 15 16 17 18 19 20 21 22 23 24 25 26 27 28 29 30 31 32 33 34 35 36 37 38 39 40 41 42 43 44 45
000
ASUS41 KLWX 280010
RWRLWX

REGIONAL WEATHER ROUNDUP
NATIONAL WEATHER SERVICE BALTIMORE MD/WASHINGTON DC
800 PM EDT MON JUL 27 2015

Note: "FAIR" indicates few or no clouds below 12,000 feet
with no significant weather and/or obstructions to visibility.
 TC=TEMPERATURE CELSIUS

 * =Non NWS site. Station does not report precipitation (e.g. rain,
    snow, etc.), thunder, or fog.

DCZ001-MDZ009-015-VAZ040>042-051-053>054-280100-
WASHINGTON METRO

CITY           SKY/WX    TMP DP  RH WIND       PRES   REMARKS
WASHINGTON NAT PTCLDY    84  69  60 N3        29.98R
DULLES         MOCLDY    79  72  79 E7        29.98R
ANDREWS AFB    CLEAR     78  74  87 SE3       29.98R
FT BELVOIR     CLEAR     81  74  78 CALM      29.97R
QUANTICO       PTCLDY    83  75  77 NE5       29.97R HX  90
COLLEGE PARK*  CLEAR     81  72  74 CALM      29.97R
LEESBURG*      CLEAR     81  73  78 SE3       29.99R
MANASSAS*      CLEAR     81  75  83 CALM      29.97R
GAITHERSBURG*  PTCLDY    79  68  69 SE5       30.03R

$$

MDZ006>007-011-014-280100-
BALTIMORE METRO

CITY           SKY/WX    TMP DP  RH WIND       PRES   REMARKS
BWI AIRPORT    PTCLDY    81  73  76 CALM      29.97R
MD SCIENCE CTR   N/A     82  73  74 MISG      29.98R
MARTIN STATE   PTCLDY    81  75  83 E3        29.99R
ANNAPOLIS      CLEAR     80  73  79 S10       29.97R
FORT MEADE*    CLEAR     77  73  88 CALM      30.00R

$$

MDZ012-015-019>023-280100-
MARYLAND EASTERN SHORE

CITY           SKY/WX    TMP DP  RH WIND       PRES   REMARKS
OCEAN CITY     CLOUDY    78  70  76 S5        30.00R
SALISBURY      PTCLDY    76  71  85 S7        29.99S
BAY BRIDGE AP*   N/A     81  72  74 CALM      29.97S
CAMBRIDGE*     MOCLDY    81  68  65 S5        29.98S
EASTON*        MOCLDY    82  72  69 S7        30.01R

$$

MDZ017>025-280100-
SOUTHERN MARYLAND

CITY           SKY/WX    TMP DP  RH WIND       PRES   REMARKS
PATUXENT RIVER PTCLDY    80  72  76 S7        29.97R
ST INIGOES     PTCLDY    81  71  71 SE7G18    29.97R
LEONARDTOWN*   PTCLDY    79  72  78 CALM      29.99S

$$

MDZ003>005-280100-
NORTH CENTRAL MARYLAND

CITY           SKY/WX    TMP DP  RH WIND       PRES   REMARKS
FREDERICK*     PTCLDY    81  72  74 CALM      30.00R
HAGERSTOWN APT CLEAR     82  70  66 SE6       29.99R
WESTMINSTER*   CLEAR     82  73  74 SE5       30.01R

$$

MDZ501>502-280100-
WESTERN MARYLAND

CITY           SKY/WX    TMP DP  RH WIND       PRES   REMARKS
OAKLAND*       CLEAR     73 N/A N/A CALM      30.09R
CUMBERLAND*    PTCLDY    81  72  74 S3        30.02R

$$

VAZ025>031-280100-
SHENANDOAH VALLEY

CITY           SKY/WX    TMP DP  RH WIND       PRES   REMARKS
WINCHESTER*    CLEAR     81  72  74 SE5       29.99R
FRONT ROYAL*   FAIR      77  73  88 CALM      29.97S
LURAY*         FAIR      77  72  83 CALM      30.00R
NEW MARKET*    FAIR      71  71  98 CALM      30.00R
STAUNTON*      PTCLDY    78  70  75 CALM      30.04R
WAYNESBORO*    FAIR      71  70  98 CALM      30.03R

$$

WVZ021-048>050-054>055-280100-
EASTERN WEST VIRGINIA PANHANDLE

CITY           SKY/WX    TMP DP  RH WIND       PRES   REMARKS
MARTINSBURG    MOCLDY    80  71  74 CALM      29.98R
PETERSBURG*    MOCLDY   N/A N/A N/A CALM      30.01R

$$

VAZ036>039-050-280100-
CENTRAL FOOTHILLS

CITY           SKY/WX    TMP DP  RH WIND       PRES   REMARKS
CHARLOTTESVILL MOCLDY    75  71  87 W3        29.99R
CULPEPER*      PTCLDY    80  74  81 CALM      29.97F
ORANGE*        MOCLDY    79  73  83 CALM      29.99R
GORDONSVILLE*  FAIR      77  73  88 CALM      29.97S
WARRENTON*     FAIR      80  76  87 CALM      29.97S

$$

VAZ055>057-280100-
NORTH AND CENTRAL PIEDMONT

CITY           SKY/WX    TMP DP  RH WIND       PRES   REMARKS
FREDERICKSBRG* MOCLDY    83  73  72 S8        29.97R
STAFFORD*      PTCLDY    80  73  78 CALM      30.01R

$$

NCZ024-NYZ072-PAZ021-071-VAZ022-071-280100-
OTHER REGIONAL OBSERVATIONS

CITY           SKY/WX    TMP DP  RH WIND       PRES   REMARKS
NEW YORK CITY  PTCLDY    79  66  64 VRB5      30.02R
PHILADELPHIA   PTCLDY    82  69  64 S9        29.98R
PITTSBURGH     PTCLDY    86  62  44 N9        29.98S
ROANOKE        MOCLDY    81  71  71 E5        30.01S
RICHMOND       TSTM      78  75  90 N8        29.99R
RALEIGH        MOCLDY    84  72  67 SE5       29.97S

$$

ANZ530>537-280100-
MARINE OBSERVATIONS

STATION/POSITION TIME  TEMP    WIND        PRES
                       AIR SEA DIR/SP/G
                 (UTC) (F)     (DEG/KT/KT) (MB)
THOMAS PT LIGHT  NOT AVBL
BALT KEY BRIDGE  2300   81     100/  8/  9 1014.4R
COVE POINT       2300   80     180/ 16/ 17 1015.3F
LEWISETTA        2300   82 82  170/  7/  9 1014.6R
SOLOMONS ISLAND  2300      83                N/A

$$




USA.gov is the U.S. government's official web portal to all federal, state and local government web resources and services.